This is the latest recevied weather packets stored in our database for station/object OH7GGX-14. If no packets are shown the sender has not sent any weather packets the latest 10 day(s).
| Time | Temp. | Humidity | Pressure | Rain* | Wind** | Luminosity | Snow |
|---|---|---|---|---|---|---|---|
| 1777624903 | 12.78° C | 62% | 1019 hPa | 0 mm | - | - | - |
| 1777624303 | 12.78° C | 65% | 1019.1 hPa | 0 mm | - | - | - |
| 1777623703 | 12.22° C | 67% | 1019 hPa | 0 mm | - | - | - |
| 1777623103 | 12.22° C | 69% | 1019.2 hPa | 0 mm | - | - | - |
| 1777622503 | 11.67° C | 71% | 1019.3 hPa | 0 mm | - | - | - |
| 1777621903 | 11.11° C | 74% | 1019.5 hPa | 0 mm | - | - | - |
| 1777621303 | 10.56° C | 79% | 1019.4 hPa | 0 mm | - | - | - |
| 1777620703 | 10.56° C | 80% | 1019.5 hPa | 0 mm | - | - | - |
| 1777620103 | 10.56° C | 81% | 1019.7 hPa | 0 mm | - | - | - |
| 1777619503 | 10.56° C | 82% | 1019.7 hPa | 0 mm | - | - | - |
| 1777618903 | 10° C | 85% | 1019.7 hPa | 0 mm | - | - | - |
| 1777618303 | 10° C | 86% | 1019.7 hPa | 0 mm | - | - | - |
| 1777617703 | 9.44° C | 88% | 1019.8 hPa | 0 mm | - | - | - |
| 1777617104 | 9.44° C | 91% | 1019.8 hPa | 0 mm | - | - | - |
| 1777616504 | 8.89° C | 94% | 1019.8 hPa | 0 mm | - | - | - |
| 1777615904 | 7.78° C | 97% | 1019.9 hPa | 0 mm | - | - | - |
| 1777615303 | 7.78° C | 99% | 1020 hPa | 0 mm | - | - | - |
| 1777614704 | 7.22° C | 99% | 1020.2 hPa | 0 mm | - | - | - |
| 1777614104 | 6.67° C | 99% | 1020.1 hPa | 0 mm | - | - | - |
| 1777613504 | 6.11° C | 99% | 1020.1 hPa | 0 mm | - | - | - |
| 1777612904 | 5.56° C | 99% | 1020.3 hPa | 0 mm | - | - | - |
| 1777612304 | 5° C | 99% | 1020.3 hPa | 0 mm | - | - | - |
| 1777611704 | 4.44° C | 99% | 1020.3 hPa | 0 mm | - | - | - |
| 1777611104 | 4.44° C | 99% | 1020.4 hPa | 0 mm | - | - | - |
| 1777610504 | 3.89° C | 99% | 1020.6 hPa | 0 mm | - | - | - |
* Rain latest hour (hover to see other rain measurements)
** Current wind speed in m/s (hover to see current wind gust speed)